Location: Newark
(41.1192°N, 81.5292°W)
Time: 23:16:48
(UTC+00:00)

N. Korean satellite - Pass Details

Date: 19 November 2019
Orbit: 455 x 507 km, 97.2° (Epoch: 14 December)

Event Time Altitude Azimuth Distance (km) Brightness Sun altitude
Rises 23:00:06 0° 186° (S) 2,549 10.5 -10.6°
Reaches altitude 10° 23:02:17 10° 196° (SSW) 1,682 9.8 -11.0°
Maximum altitude 23:05:36 34° 263° (W) 835 8.5 -11.6°
Drops below altitude 10° 23:09:01 10° 330° (NNW) 1,717 9.5 -12.3°
Sets 23:11:15 0° 339° (NNW) 2,612 10.4 -12.7°
